This is the latest recevied weather packets stored in our database for station/object YO8SDE-8. If no packets are shown the sender has not sent any weather packets the latest 10 day(s).
| Time | Temp. | Humidity | Pressure | Rain* | Wind** | Luminosity | Snow |
|---|---|---|---|---|---|---|---|
| 1778065858 | 32.22° C | 21% | 1000.2 hPa | 0 mm | - | - | - |
| 1778065559 | 31.67° C | 21% | 1000.4 hPa | 0 mm | - | - | - |
| 1778065258 | 31.67° C | 21% | 1000.2 hPa | 0 mm | - | - | - |
| 1778064958 | 31.67° C | 21% | 1000.2 hPa | 0 mm | - | - | - |
| 1778064658 | 32.22° C | 21% | 1000.3 hPa | 0 mm | - | - | - |
| 1778064358 | 32.22° C | 21% | 1000.4 hPa | 0 mm | - | - | - |
| 1778064059 | 32.78° C | 21% | 1000.5 hPa | 0 mm | - | - | - |
| 1778063759 | 33.33° C | 21% | 1000.2 hPa | 0 mm | - | - | - |
| 1778063458 | 33.33° C | 23% | 1000.4 hPa | 0 mm | - | - | - |
| 1778063159 | 33.33° C | 26% | 1000.4 hPa | 0 mm | - | - | - |
| 1778062858 | 32.78° C | 27% | 1000.4 hPa | 0 mm | - | - | - |
| 1778062558 | 32.78° C | 31% | 1000.5 hPa | 0 mm | - | - | - |
| 1778062259 | 32.78° C | 31% | 1000.5 hPa | 0 mm | - | - | - |
| 1778061958 | 32.78° C | 32% | 1000.6 hPa | 0 mm | - | - | - |
| 1778061659 | 32.78° C | 31% | 1000.7 hPa | 0 mm | - | - | - |
| 1778061359 | 32.22° C | 32% | 1000.6 hPa | 0 mm | - | - | - |
| 1778061059 | 32.22° C | 33% | 1000.8 hPa | 0 mm | - | - | - |
| 1778060759 | 31.67° C | 33% | 1000.8 hPa | 0 mm | - | - | - |
| 1778060459 | 31.67° C | 34% | 1000.8 hPa | 0 mm | - | - | - |
| 1778060159 | 31.67° C | 35% | 1000.8 hPa | 0 mm | - | - | - |
| 1778059859 | 31.11° C | 35% | 1000.9 hPa | 0 mm | - | - | - |
| 1778059559 | 31.11° C | 35% | 1001 hPa | 0 mm | - | - | - |
| 1778059259 | 31.11° C | 36% | 1000.9 hPa | 0 mm | - | - | - |
| 1778058959 | 30.56° C | 36% | 1001 hPa | 0 mm | - | - | - |
| 1778058659 | 30.56° C | 36% | 1001 hPa | 0 mm | - | - | - |
* Rain latest hour (hover to see other rain measurements)
** Current wind speed in m/s (hover to see current wind gust speed)